• Processing (Info)

  • MPEC 2005-W97 : 2005 WK56

    The following Minor Planet Electronic Circular may be linked-to from your own Web pages, but must not otherwise be redistributed electronically.

    A form allowing access to any MPEC is at the bottom of this page.


    Read MPEC 2005-W96 Read MPEC 2005-X01


    M.P.E.C. 2005-W97                                Issued 2005 Nov. 30, 20:54 UT
    
         The Minor Planet Electronic Circulars contain information on unusual
             minor planets and routine data on comets.  They are published
       on behalf of Commission 20 of the International Astronomical Union by the
              Minor Planet Center, Smithsonian Astrophysical Observatory,
                              Cambridge, MA 02138, U.S.A.
    
                      Supported in part by the Brinson Foundation
                      Supported in part by the TABASGO Foundation
                 Prepared using the Tamkin Foundation Computer Network
    
                                  MPC@CFA.HARVARD.EDU
              URL http://cfa-www.harvard.edu/iau/mpc.html  ISSN 1523-6714
    
                                       2005 WK56
    
    Observations:
         K05W56K  C2005 11 30.27194 02 27 12.52 -08 38 34.5          16.9 V EW097703
         K05W56K* C2005 11 30.27461 02 27 14.72 -08 37 52.4          17.0 V EW097703
         K05W56K  C2005 11 30.28052 02 27 19.58 -08 36 18.0          17.0 V EW097703
         K05W56K  C2005 11 30.28319 02 27 21.78 -08 35 35.7          17.0 V EW097703
         K05W56K  C2005 11 30.28910 02 27 26.74 -08 34 00.6          19.1 V EW097703
         K05W56K  C2005 11 30.29175 02 27 28.87 -08 33 19.1          17.5 V EW097703
         K05W56K  C2005 11 30.30034 02 27 36.00 -08 31 02.2          17.8 V EW097703
         K05W56K  C2005 11 30.34916 02 28 16.78 -08 18 03.2          17.2 V EW097703
         K05W56K  C2005 11 30.34951 02 28 17.04 -08 17 57.3          17.2 V EW097703
         K05W56K  C2005 11 30.34986 02 28 17.29 -08 17 52.7          17.1 V EW097703
         K05W56K  C2005 11 30.35020 02 28 17.58 -08 17 47.3          17.3 V EW097703
         K05W56K  C2005 11 30.53697902 31 05.69 -07 24 28.8          16.8 R EW097474
         K05W56K  C2005 11 30.53767502 31 06.28 -07 24 17.8          17.0 R EW097474
         K05W56K  C2005 11 30.53813702 31 06.68 -07 24 10.5          16.9 R EW097474
         K05W56K  C2005 11 30.53883102 31 07.25 -07 23 59.5          16.7 R EW097474
         K05W56K  C2005 11 30.57677102 31 38.97 -07 13 58.2          17.4 R EW097474
         K05W56K  C2005 11 30.57746502 31 39.51 -07 13 46.8          17.5 R EW097474
         K05W56K  C2005 11 30.57816002 31 40.10 -07 13 36.0          17.2 R EW097474
         K05W56K  C2005 11 30.63822902 32 31.09 -06 57 44.3          18.3 R EW097474
         K05W56K  C2005 11 30.63961802 32 32.20 -06 57 22.7          17.9 R EW097474
         K05W56K  C2005 11 30.64253502 32 34.74 -06 56 36.5          18.3 R EW097474
         K05W56K  C2005 11 30.77441 02 34 45.27 -06 26 52.8          17.5 R EW097143
         K05W56K  C2005 11 30.77543 02 34 46.11 -06 26 38.1          17.4 R EW097143
         K05W56K  C2005 11 30.77681 02 34 47.23 -06 26 15.4          17.4 R EW097143
         K05W56K  C2005 11 30.77812 02 34 48.33 -06 25 56.0          17.5 R EW097143
         K05W56K  C2005 11 30.81954 02 35 22.42 -06 15 08.2          17.1   EW097147
         K05W56K  C2005 11 30.82100 02 35 23.58 -06 14 44.9          16.9   EW097147
         K05W56K  C2005 11 30.82231 02 35 24.67 -06 14 24.5          17.1   EW097147
         K05W56K  C2005 11 30.82406 02 35 26.09 -06 13 57.3          17.2   EW097147
         K05W56K  C2005 11 30.82567 02 35 27.40 -06 13 32.6          16.9   EW097147
         K05W56K  C2005 11 30.82712 02 35 28.57 -06 13 09.3          16.8   EW097147
         K05W56K  C2005 11 30.82844 02 35 29.64 -06 12 49.0          17.1   EW097147
         K05W56K  C2005 11 30.83077 02 35 31.49 -06 12 12.6          16.8   EW097147
    
    Observer details:
    143 Gnosca.  Observer S. Sposetti.  0.40-m f/4 reflector + CCD.
    147 Osservatorio Astronomico di Suno.  Observers D. Crespi, S. Foglia,
        G. Galli, S. Minuto, V. Sacco.  Measurer S. Foglia.  0.40-m f/4 reflector
        + CCD.
    474 Mount John Observatory, Lake Tekapo.  Observer A. C. Gilmore.  1.0-m f/7.7
        reflector + CCD.
    703 Catalina Sky Survey.  Observer E. J. Christensen.  Measurers E. C. Beshore,
        E. J. Christensen, G. J. Garradd, A. D. Grauer, R. E. Hill, R. A. Kowalski,
        S. M. Larson, R. H. McNaught.  0.68-m Schmidt + CCD.
    
    Orbital elements:
    2005 WK56
    Epoch 2006 Mar. 6.0 TT = JDT 2453800.5                  MPC
    M  57.37556              (2000.0)            P               Q
    n   0.47723362     Peri.  321.65900     +0.78352401     -0.61470410
    a   1.6217430      Node    76.51342     +0.59062932     +0.69144649
    e   0.3930714      Incl.    5.35269     +0.19299518     +0.37952684
    P   2.07           H   22.4           G   0.15           U   6
    Residuals in seconds of arc
    051130 703  0.1+  0.3+    051130 474  0.2-  0.1-    051130 143  0.1-  0.3-
    051130 703  0.0   0.2-    051130 474  0.0   0.1-    051130 143  0.4-  0.8+
    051130 703  0.3-  0.1+    051130 474  0.2+  0.1-    051130 143  0.1-  0.2-
    051130 703  0.3-  0.2-    051130 474  0.1+  0.1-    051130 147  0.4+  0.4-
    051130 703  0.7+  0.7+    051130 474  0.5+  0.0     051130 147  0.0   0.1+
    051130 703  0.2-  0.0     051130 474  0.1-  0.4+    051130 147  0.3+  0.0
    051130 703  0.0   0.1-    051130 474  0.0   0.2+    051130 147  0.2+  0.1-
    051130 703  0.7+  0.1+    051130 474  0.5+  0.3+    051130 147  0.2+  0.5-
    051130 703  0.2+  0.4+    051130 474  0.7-  0.1-    051130 147  0.1+  0.1+
    051130 703  0.5-  0.6-    051130 474  0.1-  0.1-    051130 147  0.1+  0.2-
    051130 703  0.4-  0.7-    051130 143  0.1-  0.9+    051130 147  0.6-  0.1-
    
    Ephemeris:
    2005 WK56                a,e,i = 1.62, 0.39, 5                   q = 0.9843
    Date    TT    R. A. (2000) Decl.     Delta      r     Elong.  Phase     V
    2005 11 26    01 18.27   -26 44.9    0.0447   1.008   117.2    60.5    17.8
    2005 12 06    03 39.27   +12 55.6    0.0540   1.036   160.7    18.4    17.1
    2005 12 16    04 51.37   +30 03.0    0.0911   1.074   168.3    10.7    18.0
    2005 12 26    05 26.95   +35 28.7    0.139    1.118   163.5    14.4    19.2
    2006 01 05    05 47.84   +37 10.4    0.196    1.167   158.3    18.1    20.1
    2006 01 15    06 03.47   +37 21.5    0.261    1.221   152.5    21.8    21.0
    2006 01 25    06 17.59   +36 49.7    0.335    1.277   146.3    25.3    21.7
    
    Timothy B. Spahr             (C) Copyright 2005 MPC           M.P.E.C. 2005-W97
    

    Read MPEC 2005-W96 Read MPEC 2005-X01


    MPEC number:

    Enter an MPEC number in one of the following forms:

    • 1997-B01 (the full form)
    • J97B01 (the packed version of the full form)
    • B01 (the abbreviated form)